Regional Weather Roundup
Issued by NWS

Home | Current Version | Previous Version | Text Only | Print | Product List | Glossary Off
Versions: 1 2 3 4 5 6 7 8 9 10 11 12 13 14 15 16 17 18 19 20 21 22 23 24 25 26 27 28 29 30 31 32 33 34 35 36 37 38 39 40 41 42 43 44 45 46 47 48 49 50

000
ASUS43 KMKX 211121
RWRWI

WISCONSIN REGIONAL WEATHER ROUNDUP
NATIONAL WEATHER SERVICE MILWAUKEE/SULLIVAN WI
600 AM CDT MON AUG 21 2017

NOTE: "FAIR" INDICATES FEW OR NO CLOUDS BELOW 12,000 FEET WITH NO
SIGNIFICANT WEATHER AND/OR OBSTRUCTIONS TO VISIBILITY.

WIZ001-002-006>008-014>016-023>028-211200-
NORTHWEST WISCONSIN

CITY           SKY/WX    TMP DP  RH WIND       PRES   REMARKS
SUPERIOR ARPT    N/A     52  52  99 CALM      30.07R
ASHLAND        CLOUDY    53  52  96 SW3       30.07R
HAYWARD        PTCLDY    51  50  96 N3        30.08R
SIREN          CLOUDY    56  56  97 N3        30.06F
CUMBERLAND     CLEAR     54  52  94 CALM      30.06F
RICE LAKE      CLEAR     57  56  97 CALM      30.06F FOG
CHETEK         PTCLDY    62  61  97 N9        30.05F
LADYSMITH      CLOUDY    62  59  91 CALM      30.08S
EAU CLAIRE     CLOUDY    66  63  90 NE3       30.04R
MENOMONIE      CLOUDY    67  62  85 CALM      30.06R
NEW RICHMOND   MOCLDY    60  58  93 CALM      30.07R
OSCEOLA        CLEAR     56  56 100 CALM      30.09R
$$

WIZ003>005-009-010-017-018-211200-
NORTH CENTRAL WISCONSIN

CITY           SKY/WX    TMP DP  RH WIND       PRES   REMARKS
MANITOWISH WTR FOG       49  49 100 CALM      30.09F VSB 1/4
ARBOR VITAE    FOG       57  56  96 CALM      30.09S VSB 1
WOODRUFF       FOG       57  56  96 CALM      30.09S VSB 1
RHINELANDER    CLOUDY    62  62 100 N3        30.09R
EAGLE RIVER    FOG       54  54 100 CALM      30.10R VSB<1/4
LAND O LAKES     N/A     53  53 100 CALM      30.11S FOG
PHILLIPS       CLOUDY    56  56 100 CALM      30.08S FOG
TOMAHAWK         N/A     58  57  96 CALM      30.08F
MEDFORD        CLOUDY    62  61  97 CALM      30.07S
MERRILL        CLOUDY    63  63 100 CALM      30.07S FOG
$$

WIZ029-030-035-036-043>047-211200-
CENTRAL WISCONSIN

CITY           SKY/WX    TMP DP  RH WIND       PRES   REMARKS
WAUSAU         CLOUDY    64  64 100 CALM      30.05R FOG
MOSINEE        FOG       63  63 100 CALM      30.07R VSB 1/4
MARSHFIELD     CLOUDY    65  63  93 CALM      30.06R FOG
STEVENS POINT  CLOUDY    63  63 100 CALM      30.06R FOG
WAUPACA        CLOUDY    65  65  97 CALM      30.05R
WAUTOMA        CLOUDY    60  60 100 CALM      30.06R
WISC RAPIDS    CLOUDY    65  65 100 CALM      30.06R FOG
CAMP DOUGLAS   CLOUDY    63  63 100 CALM      30.05R
$$

WIZ011>013-019>022-031-037>040-048>050-211200-
NORTHEAST WISCONSIN

CITY           SKY/WX    TMP DP  RH WIND       PRES   REMARKS
ANTIGO         CLOUDY    59  59 100 CALM      30.08S FOG
SHAWANO        CLOUDY    66  65  94 CALM      30.05S FOG
OCONTO         CLOUDY    64  63  97 CALM      30.04R
STURGEON BAY   CLOUDY    69  67  93 W6        30.04S
GREEN BAY      FOG       63  63 100 CALM      30.04S VSB 1/4
MANITOWOC      FOG       64  63  94 CALM      30.06S VSB 3/4
APPLETON       MOCLDY    64  64 100 CALM      30.04R
CLINTONVILLE   MOCLDY    63  61  94 CALM      30.04F FOG
OSHKOSH        CLOUDY    64  62  93 S3        30.05R FOG
$$

WIZ032>034-041-042-053>061-211200-
SOUTHWEST WISCONSIN

CITY           SKY/WX    TMP DP  RH WIND       PRES   REMARKS
LA CROSSE      CLOUDY    71  67  87 SE5       30.06R
SPARTA         CLOUDY    60  60 100 CALM      30.07R
VIROQUA        CLOUDY    64  64 100 CALM      30.08R
BOSCOBEL       CLOUDY    63  62  97 CALM      30.07S FOG
PRAIRIE DU CHI CLOUDY    64  62  94 SE3       30.06S
PLATTEVILLE    CLOUDY    64  64 100 N5        30.07R
$$

WIZ056-057-062-063-064-067-068-211200-
SOUTH CENTRAL WISCONSIN

CITY           SKY/WX    TMP DP  RH WIND       PRES   REMARKS
REEDSBURG      CLOUDY    61  61 100 CALM      30.06R
BARABOO/DELLS  CLOUDY    63  61  95 CALM      30.06S
LONE ROCK      FOG       63  63 100 W3        30.06R VSB 1/4
MINERAL POINT  CLOUDY    64  64 100 CALM      30.08R
MADISON        CLOUDY    63  62  97 N3        30.05R
MIDDLETON      MOCLDY    62  62 100 CALM      30.06S
WATERTOWN      MOCLDY    64  64 100 CALM      30.05S FOG
MONROE         MOCLDY    64  64 100 CALM      30.05F FOG
JANESVILLE     FOG       64  64 100 CALM      30.05S VSB 1
$$

WIZ051-052-058>065-066-070>072-211200-
SOUTHEAST WISCONSIN

CITY           SKY/WX    TMP DP  RH WIND       PRES   REMARKS
MILWAUKEE      CLOUDY    70  67  90 NW3       30.05R
WAUKESHA       CLEAR     63  63 100 CALM      30.07R FOG
MILWAUKEE/TIMM CLOUDY    64  61  88 CALM      30.06S
RACINE         CLOUDY    68  68 100 S5        30.07R
KENOSHA        CLOUDY    69  67  93 S3        30.06R
FOND DU LAC    MOCLDY    64  62  93 S5        30.06R FOG
SHEBOYGAN      CLOUDY    63  63 100 CALM      30.05S FOG
WEST BEND      CLOUDY    61  61 100 CALM      30.06S FOG
JUNEAU         FOG       63  63  99 CALM      30.07R VSB<1/4
$$

LSZ147-162-211200-
LAKE SUPERIOR

STATION/POSITION TIME  TEMP    WIND        PRES    WAVE
                       AIR SEA DIR/SP/G            HT/PER
                 (UTC) (F)     (DEG/KT/KT) (MB)    (FT/S)
W MID LAKE BUOY  1050   61 60  270/  8/  8 1016.9R   1
DEVILS ISLAND    1100   62     220/  8/  9 1017.9R
SAXON HARBOR     1030   57     180/  6/  7 1017.3R
$$

LMZ867-665-643>646-211200-
LAKE MICHIGAN

STATION/POSITION TIME  TEMP    WIND        PRES    WAVE
                       AIR SEA DIR/SP/G            HT/PER
                 (UTC) (F)     (DEG/KT/KT) (MB)    (FT/S)
S GREEN BAY BUOY 1100   71 71  260/  4/  6 1016.7
N MID LAKE BUOY  1050   68 67  230/  6/  6 1017.1R   2/ 5
NORTHPORT PIER   1040   69     250/  3/  5 1016.6R
KEWAUNEE LAKESHO 1054   67     180/  4/  6 1016.3R
SHEBOYGAN LAKESH 1100   69     260/  3/  3 1017.2R
PORT WASHINGTON  1030   70     280/  3/  5 1017.9R
ATWATER BUOY     1039   69 70  330/  2/  4 1017.7R
MILWAUKEE LAKESH 1100   71     310/  1/  2   N/A
S MID LAKE BUOY  1050   73 72  210/ 14/ 16 1017.5R   1/ 3
KENOSHA   LAKESH 1100   74     200/  5/  8 1017.6
$$

TC  - TEMPERATURE IN CELSIUS
VSB - VISIBILITY IN STATUTE MILES
WCI - WIND CHILL INDEX
HX  - HEAT INDEX





USA.gov is the U.S. government's official web portal to all federal, state and local government web resources and services.